QPF
0.02 0.03 0.05 0.07 0.05 0.05 0.07 0.08 0.08 0.08 0.09 0.10 0.09 0.08 0.09 0.09 0.09 0.09 0.09 0.10 0.09 0.09 0.08 0.08 0.06 0.05 0.05 0.05 0.03 0.04 0.04 0.06 0.04 0.04 0.04 0.06 0.05 0.05 0.05 0.03 0.05 0.05 0.06
0.02 0.03 0.04 0.04 0.04 0.04 0.06 0.09 0.07 0.07 0.08 0.10 0.10 0.09 0.09 0.09 0.07 0.08 0.07 0.07 0.06 0.07 0.07 0.07 0.06 0.06 0.05 0.05 0.04 0.05 0.05 0.05 0.04 0.04 0.04 0.04 0.05 0.04 0.03 0.03 0.03 0.05 0.04
0.02 0.02 0.02 0.04 0.05 0.05 0.07 0.09 0.08 0.05 0.05 0.07 0.08 0.08 0.08 0.07 0.06 0.06 0.06 0.05 0.04 0.04 0.06 0.05 0.04 0.05 0.05 0.05 0.05 0.06 0.05 0.03 0.03 0.03 0.04 0.05 0.05 0.05 0.05 0.06 0.05 0.03 0.03
0.01 0.02 0.02 0.05 0.06 0.08 0.12 0.10 0.06 0.04 0.04 0.03 0.04 0.05 0.06 0.06 0.06 0.05 0.04 0.04 0.04 0.04 0.05 0.05 0.05 0.06 0.07 0.06 0.06 0.06 0.05 0.04 0.03 0.03 0.04 0.05 0.06 0.05 0.07 0.08 0.07 0.04 0.04
0.01 0.01 0.03 0.06 0.09 0.11 0.11 0.08 0.07 0.04 0.03 0.03 0.03 0.05 0.06 0.06 0.05 0.05 0.05 0.03 0.04 0.06 0.06 0.05 0.06 0.07 0.06 0.05 0.05 0.05 0.05 0.05 0.03 0.02 0.03 0.05 0.06 0.05 0.04 0.04 0.05 0.03 0.03
0.02 0.03 0.05 0.08 0.10 0.09 0.08 0.09 0.08 0.05 0.03 0.03 0.03 0.05 0.05 0.05 0.05 0.04 0.03 0.04 0.04 0.04 0.05 0.05 0.06 0.07 0.08 0.06 0.04 0.04 0.04 0.02 0.01 0.01 0.03 0.04 0.06 0.05 0.04 0.03 0.03 0.02 0.03
0.05 0.05 0.05 0.05 0.05 0.07 0.08 0.09 0.09 0.07 0.05 0.04 0.04 0.05 0.03 0.02 0.03 0.04 0.05 0.06 0.05 0.05 0.04 0.04 0.08 0.09 0.10 0.06 0.05 0.04 0.03 0.01 0.00 0.01 0.02 0.03 0.06 0.06 0.06 0.03 0.03 0.02 0.03
0.06 0.06 0.05 0.05 0.04 0.05 0.08 0.08 0.09 0.08 0.05 0.05 0.05 0.04 0.03 0.03 0.04 0.05 0.06 0.05 0.04 0.04 0.03 0.04 0.06 0.08 0.09 0.07 0.06 0.05 0.03 0.01 0.00 0.01 0.01 0.03 0.07 0.08 0.07 0.04 0.03 0.03 0.04
0.04 0.04 0.04 0.05 0.04 0.04 0.07 0.06 0.07 0.06 0.06 0.06 0.06 0.04 0.04 0.04 0.05 0.05 0.05 0.05 0.05 0.05 0.05 0.06 0.08 0.08 0.09 0.08 0.08 0.07 0.03 0.01 0.01 0.02 0.02 0.05 0.08 0.07 0.05 0.04 0.04 0.04 0.03
0.02 0.02 0.03 0.06 0.05 0.05 0.07 0.06 0.06 0.06 0.07 0.06 0.05 0.04 0.03 0.03 0.04 0.03 0.04 0.06 0.07 0.07 0.07 0.08 0.08 0.07 0.05 0.05 0.06 0.05 0.03 0.01 0.03 0.03 0.05 0.07 0.07 0.06 0.04 0.04 0.03 0.03 0.03
0.02 0.02 0.03 0.04 0.06 0.07 0.06 0.05 0.06 0.06 0.06 0.04 0.03 0.03 0.02 0.03 0.03 0.04 0.06 0.09 0.09 0.08 0.08 0.08 0.08 0.08 0.07 0.05 0.04 0.03 0.02 0.02 0.03 0.03 0.06 0.06 0.07 0.05 0.05 0.05 0.04 0.04 0.03
0.01 0.02 0.02 0.02 0.03 0.06 0.07 0.06 0.05 0.05 0.05 0.04 0.02 0.02 0.01 0.02 0.02 0.03 0.05 0.07 0.07 0.08 0.06 0.04 0.06 0.08 0.06 0.03 0.02 0.02 0.03 0.03 0.03 0.04 0.06 0.07 0.07 0.05 0.05 0.04 0.05 0.04 0.03
0.01 0.01 0.02 0.03 0.04 0.06 0.07 0.05 0.04 0.05 0.04 0.04 0.02 0.01 0.02 0.01 0.01 0.02 0.03 0.03 0.03 0.03 0.02 0.02 0.03 0.03 0.04 0.03 0.04 0.03 0.02 0.02 0.03 0.04 0.07 0.09 0.09 0.06 0.06 0.04 0.03 0.03 0.04
0.01 0.01 0.01 0.02 0.05 0.06 0.07 0.04 0.04 0.05 0.03 0.02 0.02 0.01 0.01 0.01 0.01 0.01 0.03 0.02 0.02 0.02 0.02 0.03 0.03 0.02 0.03 0.03 0.03 0.03 0.02 0.02 0.03 0.04 0.07 0.08 0.08 0.08 0.07 0.04 0.04 0.04 0.05
0.01 0.01 0.01 0.02 0.04 0.05 0.06 0.05 0.05 0.04 0.03 0.02 0.02 0.01 0.01 0.02 0.02 0.01 0.01 0.01 0.01 0.02 0.03 0.03 0.03 0.02 0.03 0.04 0.03 0.02 0.02 0.02 0.03 0.03 0.04 0.04 0.06 0.09 0.09 0.07 0.06 0.08 0.06
0.00 0.01 0.01 0.02 0.03 0.04 0.05 0.05 0.05 0.03 0.02 0.02 0.02 0.02 0.01 0.01 0.02 0.02 0.02 0.01 0.01 0.02 0.03 0.04 0.02 0.02 0.02 0.02 0.02 0.02 0.02 0.02 0.03 0.03 0.03 0.03 0.03 0.04 0.07 0.08 0.09 0.09 0.08
0.01 0.01 0.01 0.02 0.03 0.04 0.03 0.04 0.03 0.03 0.01 0.01 0.02 0.02 0.01 0.03 0.03 0.03 0.03 0.02 0.01 0.02 0.03 0.04 0.02 0.01 0.01 0.01 0.01 0.02 0.03 0.02 0.02 0.01 0.02 0.03 0.03 0.03 0.05 0.07 0.09 0.09 0.08
0.00 0.00 0.01 0.01 0.02 0.02 0.02 0.03 0.03 0.03 0.02 0.01 0.02 0.02 0.02 0.03 0.04 0.04 0.02 0.02 0.02 0.03 0.04 0.05 0.03 0.01 0.01 0.01 0.02 0.03 0.02 0.01 0.01 0.01 0.02 0.03 0.04 0.03 0.03 0.05 0.08 0.08 0.06
0.01 0.01 0.01 0.01 0.01 0.01 0.02 0.03 0.03 0.04 0.03 0.02 0.01 0.02 0.02 0.02 0.03 0.03 0.02 0.02 0.04 0.04 0.04 0.03 0.02 0.01 0.01 0.01 0.01 0.02 0.02 0.01 0.02 0.01 0.03 0.04 0.04 0.03 0.03 0.03 0.04 0.04 0.04
0.01 0.01 0.01 0.01 0.01 0.01 0.01 0.02 0.03 0.03 0.03 0.02 0.02 0.01 0.01 0.02 0.04 0.04 0.03 0.02 0.03 0.03 0.04 0.04 0.02 0.01 0.01 0.01 0.01 0.01 0.01 0.01 0.01 0.01 0.02 0.04 0.05 0.04 0.03 0.03 0.04 0.03 0.03
0.01 0.01 0.01 0.01 0.00 0.01 0.01 0.01 0.02 0.03 0.03 0.02 0.02 0.01 0.01 0.02 0.03 0.04 0.04 0.03 0.03 0.03 0.03 0.03 0.02 0.02 0.02 0.01 0.01 0.01 0.01 0.01 0.01 0.01 0.01 0.02 0.03 0.03 0.03 0.03 0.03 0.02 0.02
0.01 0.01 0.01 0.01 0.00 0.00 0.00 0.00 0.01 0.01 0.01 0.02 0.01 0.01 0.02 0.02 0.02 0.02 0.03 0.02 0.02 0.04 0.04 0.03 0.03 0.03 0.03 0.02 0.02 0.02 0.01 0.02 0.02 0.01 0.01 0.01 0.01 0.01 0.02 0.02 0.02 0.01 0.01
0.01 0.01 0.01 0.01 0.01 0.00 0.00 0.00 0.01 0.01 0.01 0.01 0.01 0.02 0.02 0.01 0.01 0.01 0.02 0.02 0.02 0.02 0.03 0.03 0.03 0.03 0.03 0.02 0.02 0.02 0.02 0.02 0.03 0.02 0.01 0.01 0.01 0.01 0.02 0.02 0.01 0.01 0.00
0.01 0.01 0.01 0.01 0.02 0.01 0.01 0.01 0.01 0.01 0.02 0.02 0.02 0.02 0.02 0.02 0.01 0.01 0.02 0.01 0.01 0.01 0.02 0.02 0.02 0.02 0.02 0.02 0.03 0.02 0.01 0.01 0.02 0.03 0.02 0.01 0.01 0.01 0.01 0.01 0.01 0.01 0.00
0.00 0.00 0.01 0.01 0.02 0.02 0.01 0.01 0.01 0.01 0.01 0.02 0.01 0.02 0.03 0.02 0.01 0.01 0.01 0.02 0.02 0.03 0.03 0.03 0.02 0.02 0.02 0.03 0.03 0.03 0.02 0.01 0.01 0.01 0.02 0.02 0.02 0.01 0.01 0.02 0.01 0.01 0.01
0.00 0.01 0.01 0.01 0.01 0.02 0.02 0.02 0.01 0.01 0.01 0.02 0.03 0.04 0.04 0.03 0.02 0.01 0.01 0.01 0.01 0.02 0.02 0.02 0.02 0.01 0.02 0.03 0.03 0.03 0.03 0.02 0.01 0.01 0.02 0.03 0.02 0.01 0.01 0.01 0.01 0.00 0.00
MSLP
1015.59 1015.13 1014.73 1014.43 1014.21 1014.08 1013.98 1013.86 1013.70 1013.47 1013.17 1012.85 1012.54 1012.30 1012.13 1012.06 1012.06 1012.10 1012.13 1012.15 1012.13 1012.09 1012.06 1012.08 1012.16 1012.32 1012.55 1012.83 1013.12 1013.38 1013.58 1013.71 1013.77 1013.77 1013.73 1013.69 1013.65 1013.63 1013.62 1013.61 1013.61 1013.61 1013.61
1015.60 1015.23 1014.92 1014.69 1014.54 1014.44 1014.34 1014.21 1014.01 1013.74 1013.40 1013.05 1012.72 1012.46 1012.28 1012.19 1012.15 1012.15 1012.13 1012.09 1012.02 1011.95 1011.91 1011.93 1012.04 1012.25 1012.53 1012.86 1013.19 1013.47 1013.69 1013.82 1013.89 1013.89 1013.88 1013.86 1013.84 1013.84 1013.85 1013.85 1013.85 1013.83 1013.81
1015.56 1015.28 1015.07 1014.92 1014.82 1014.76 1014.68 1014.54 1014.32 1014.03 1013.68 1013.32 1012.98 1012.70 1012.51 1012.39 1012.31 1012.24 1012.16 1012.05 1011.93 1011.83 1011.78 1011.81 1011.96 1012.21 1012.54 1012.90 1013.25 1013.54 1013.76 1013.89 1013.96 1013.97 1013.98 1013.98 1014.00 1014.03 1014.05 1014.06 1014.06 1014.03 1013.99
1015.44 1015.26 1015.13 1015.06 1015.03 1015.00 1014.95 1014.83 1014.62 1014.33 1013.98 1013.62 1013.29 1013.02 1012.81 1012.65 1012.52 1012.39 1012.24 1012.08 1011.91 1011.78 1011.73 1011.79 1011.96 1012.25 1012.60 1012.99 1013.34 1013.63 1013.83 1013.96 1014.01 1014.04 1014.06 1014.09 1014.13 1014.19 1014.23 1014.25 1014.24 1014.21 1014.16
1015.25 1015.14 1015.09 1015.10 1015.13 1015.16 1015.14 1015.05 1014.86 1014.60 1014.28 1013.94 1013.62 1013.35 1013.13 1012.95 1012.77 1012.59 1012.39 1012.18 1011.99 1011.85 1011.81 1011.89 1012.09 1012.40 1012.76 1013.14 1013.48 1013.75 1013.93 1014.04 1014.09 1014.12 1014.15 1014.20 1014.27 1014.35 1014.40 1014.43 1014.42 1014.37 1014.32
1015.00 1014.95 1014.97 1015.04 1015.13 1015.21 1015.24 1015.18 1015.03 1014.80 1014.51 1014.21 1013.92 1013.66 1013.44 1013.24 1013.04 1012.83 1012.60 1012.37 1012.17 1012.04 1012.02 1012.11 1012.33 1012.65 1013.01 1013.37 1013.68 1013.91 1014.06 1014.15 1014.19 1014.22 1014.27 1014.35 1014.43 1014.52 1014.57 1014.60 1014.58 1014.53 1014.47
1014.72 1014.71 1014.77 1014.89 1015.04 1015.16 1015.24 1015.22 1015.11 1014.92 1014.67 1014.40 1014.14 1013.90 1013.69 1013.50 1013.30 1013.08 1012.85 1012.62 1012.44 1012.32 1012.32 1012.43 1012.66 1012.96 1013.30 1013.62 1013.89 1014.09 1014.21 1014.28 1014.32 1014.36 1014.43 1014.52 1014.61 1014.70 1014.76 1014.76 1014.73 1014.68 1014.62
1014.43 1014.43 1014.52 1014.68 1014.86 1015.03 1015.14 1015.16 1015.08 1014.93 1014.72 1014.49 1014.26 1014.05 1013.86 1013.68 1013.50 1013.29 1013.08 1012.89 1012.73 1012.65 1012.66 1012.79 1013.00 1013.28 1013.58 1013.86 1014.08 1014.24 1014.34 1014.40 1014.45 1014.51 1014.60 1014.70 1014.81 1014.89 1014.94 1014.93 1014.88 1014.82 1014.76
1014.17 1014.17 1014.26 1014.43 1014.64 1014.83 1014.97 1015.02 1014.97 1014.85 1014.68 1014.48 1014.28 1014.11 1013.95 1013.79 1013.63 1013.46 1013.29 1013.13 1013.01 1012.96 1012.99 1013.11 1013.30 1013.54 1013.79 1014.02 1014.20 1014.33 1014.41 1014.48 1014.55 1014.65 1014.76 1014.88 1015.00 1015.08 1015.10 1015.08 1015.02 1014.94 1014.88
1013.96 1013.93 1014.02 1014.19 1014.41 1014.61 1014.76 1014.83 1014.81 1014.72 1014.58 1014.41 1014.25 1014.10 1013.96 1013.84 1013.71 1013.58 1013.45 1013.33 1013.24 1013.21 1013.25 1013.36 1013.52 1013.71 1013.91 1014.09 1014.23 1014.34 1014.43 1014.52 1014.62 1014.75 1014.90 1015.04 1015.16 1015.23 1015.25 1015.21 1015.14 1015.06 1015.00
1013.81 1013.76 1013.83 1013.99 1014.20 1014.40 1014.56 1014.64 1014.64 1014.58 1014.46 1014.32 1014.18 1014.06 1013.95 1013.86 1013.76 1013.66 1013.56 1013.48 1013.42 1013.40 1013.44 1013.52 1013.65 1013.80 1013.95 1014.08 1014.20 1014.30 1014.40 1014.52 1014.66 1014.83 1015.00 1015.17 1015.30 1015.36 1015.37 1015.33 1015.25 1015.17 1015.12
1013.73 1013.66 1013.72 1013.87 1014.06 1014.26 1014.41 1014.50 1014.51 1014.47 1014.37 1014.26 1014.14 1014.04 1013.95 1013.87 1013.80 1013.72 1013.65 1013.59 1013.55 1013.54 1013.57 1013.64 1013.73 1013.84 1013.95 1014.05 1014.15 1014.26 1014.38 1014.53 1014.71 1014.91 1015.11 1015.29 1015.42 1015.48 1015.48 1015.43 1015.35 1015.28 1015.25
1013.73 1013.67 1013.71 1013.84 1014.01 1014.19 1014.34 1014.42 1014.45 1014.42 1014.34 1014.25 1014.15 1014.06 1013.99 1013.91 1013.85 1013.78 1013.73 1013.68 1013.65 1013.65 1013.68 1013.73 1013.81 1013.89 1013.98 1014.07 1014.18 1014.29 1014.44 1014.62 1014.82 1015.05 1015.26 1015.44 1015.56 1015.62 1015.61 1015.55 1015.48 1015.42 1015.40
1013.83 1013.77 1013.80 1013.92 1014.07 1014.22 1014.35 1014.43 1014.46 1014.44 1014.38 1014.31 1014.22 1014.14 1014.06 1013.98 1013.92 1013.86 1013.81 1013.77 1013.76 1013.77 1013.81 1013.87 1013.94 1014.03 1014.12 1014.22 1014.33 1014.47 1014.64 1014.83 1015.05 1015.28 1015.49 1015.65 1015.76 1015.80 1015.78 1015.72 1015.66 1015.61 1015.61
1014.00 1013.96 1014.00 1014.09 1014.21 1014.34 1014.44 1014.51 1014.54 1014.53 1014.48 1014.41 1014.33 1014.25 1014.16 1014.08 1014.00 1013.93 1013.89 1013.87 1013.88 1013.92 1013.99 1014.07 1014.17 1014.28 1014.40 1014.52 1014.66 1014.82 1015.01 1015.22 1015.44 1015.65 1015.84 1015.98 1016.05 1016.07 1016.03 1015.97 1015.91 1015.87 1015.87
1014.26 1014.24 1014.27 1014.34 1014.43 1014.52 1014.59 1014.64 1014.66 1014.65 1014.61 1014.55 1014.47 1014.37 1014.27 1014.16 1014.08 1014.01 1013.97 1013.97 1014.01 1014.10 1014.21 1014.35 1014.50 1014.66 1014.82 1014.99 1015.17 1015.36 1015.56 1015.77 1015.98 1016.17 1016.33 1016.43 1016.47 1016.45 1016.39 1016.32 1016.25 1016.21 1016.21
1014.56 1014.56 1014.58 1014.62 1014.67 1014.72 1014.76 1014.80 1014.81 1014.79 1014.75 1014.69 1014.60 1014.48 1014.36 1014.24 1014.14 1014.06 1014.04 1014.07 1014.16 1014.29 1014.47 1014.68 1014.90 1015.13 1015.36 1015.58 1015.80 1016.02 1016.24 1016.45 1016.65 1016.81 1016.93 1016.99 1016.99 1016.93 1016.85 1016.76 1016.68 1016.63 1016.62
1014.89 1014.89 1014.89 1014.90 1014.91 1014.92 1014.93 1014.94 1014.95 1014.93 1014.89 1014.82 1014.71 1014.58 1014.44 1014.30 1014.18 1014.11 1014.10 1014.16 1014.30 1014.50 1014.75 1015.04 1015.34 1015.64 1015.93 1016.21 1016.47 1016.73 1016.97 1017.18 1017.37 1017.51 1017.59 1017.61 1017.58 1017.50 1017.39 1017.27 1017.17 1017.11 1017.07
1015.23 1015.21 1015.18 1015.15 1015.12 1015.09 1015.08 1015.08 1015.08 1015.06 1015.02 1014.95 1014.83 1014.69 1014.52 1014.37 1014.24 1014.17 1014.18 1014.28 1014.46 1014.72 1015.03 1015.39 1015.76 1016.12 1016.47 1016.80 1017.11 1017.40 1017.66 1017.88 1018.06 1018.19 1018.26 1018.25 1018.20 1018.09 1017.96 1017.83 1017.71 1017.62 1017.55
1015.54 1015.49 1015.43 1015.35 1015.28 1015.24 1015.21 1015.20 1015.21 1015.20 1015.17 1015.10 1014.98 1014.82 1014.65 1014.48 1014.34 1014.28 1014.30 1014.43 1014.65 1014.95 1015.32 1015.72 1016.14 1016.55 1016.94 1017.31 1017.65 1017.96 1018.23 1018.47 1018.66 1018.79 1018.85 1018.84 1018.77 1018.66 1018.52 1018.38 1018.24 1018.13 1018.04
1015.82 1015.74 1015.63 1015.52 1015.42 1015.36 1015.33 1015.34 1015.36 1015.37 1015.36 1015.29 1015.18 1015.02 1014.84 1014.66 1014.53 1014.47 1014.51 1014.65 1014.90 1015.23 1015.62 1016.05 1016.48 1016.91 1017.31 1017.69 1018.04 1018.36 1018.65 1018.90 1019.10 1019.24 1019.32 1019.32 1019.27 1019.16 1019.03 1018.89 1018.75 1018.63 1018.52
1016.09 1015.95 1015.80 1015.66 1015.55 1015.48 1015.47 1015.49 1015.54 1015.58 1015.59 1015.55 1015.45 1015.29 1015.12 1014.95 1014.82 1014.77 1014.82 1014.98 1015.23 1015.57 1015.96 1016.37 1016.79 1017.20 1017.58 1017.94 1018.28 1018.59 1018.89 1019.15 1019.37 1019.53 1019.63 1019.66 1019.63 1019.55 1019.44 1019.31 1019.19 1019.07 1018.96
1016.33 1016.16 1015.97 1015.80 1015.68 1015.62 1015.63 1015.68 1015.77 1015.84 1015.88 1015.86 1015.78 1015.64 1015.48 1015.32 1015.21 1015.17 1015.23 1015.39 1015.65 1015.97 1016.33 1016.71 1017.09 1017.44 1017.78 1018.09 1018.39 1018.68 1018.96 1019.23 1019.46 1019.65 1019.78 1019.84 1019.85 1019.81 1019.73 1019.64 1019.54 1019.44 1019.36
1016.58 1016.36 1016.15 1015.96 1015.84 1015.80 1015.83 1015.91 1016.03 1016.14 1016.20 1016.20 1016.14 1016.02 1015.88 1015.74 1015.65 1015.63 1015.71 1015.87 1016.12 1016.41 1016.74 1017.06 1017.37 1017.66 1017.92 1018.16 1018.41 1018.66 1018.92 1019.17 1019.41 1019.61 1019.78 1019.88 1019.93 1019.93 1019.90 1019.85 1019.79 1019.73 1019.68
1016.83 1016.59 1016.36 1016.16 1016.05 1016.01 1016.06 1016.17 1016.31 1016.44 1016.52 1016.54 1016.49 1016.39 1016.27 1016.15 1016.09 1016.09 1016.18 1016.36 1016.59 1016.86 1017.14 1017.40 1017.63 1017.84 1018.02 1018.19 1018.36 1018.56 1018.78 1019.01 1019.25 1019.47 1019.66 1019.80 1019.89 1019.93 1019.94 1019.94 1019.93 1019.92 1019.92
1017.09 1016.84 1016.59 1016.40 1016.29 1016.27 1016.33 1016.45 1016.59 1016.72 1016.81 1016.83 1016.78 1016.69 1016.58 1016.50 1016.46 1016.49 1016.60 1016.78 1017.01 1017.25 1017.49 1017.69 1017.85 1017.98 1018.07 1018.17 1018.28 1018.42 1018.59 1018.80 1019.03 1019.25 1019.45 1019.62 1019.74 1019.83 1019.88 1019.93 1019.96 1020.01 1020.06
Thickness
5772 5772 5767 5767 5767 5767 5766 5766 5766 5765 5765 5765 5765 5764 5764 5764 5763 5763 5763 5762 5762 5762 5762 5762 5762 5762 5762 5762 5762 5762 5762 5762 5763 5763 5763 5763 5763 5762 5762 5763 5764 5765 5763
5772 5771 5766 5765 5765 5764 5764 5763 5763 5762 5762 5761 5761 5761 5761 5761 5760 5760 5760 5759 5759 5759 5759 5759 5759 5759 5759 5759 5759 5759 5759 5759 5759 5760 5760 5761 5760 5760 5760 5760 5761 5762 5761
5771 5768 5765 5763 5762 5762 5761 5760 5760 5759 5759 5758 5758 5758 5758 5757 5757 5757 5757 5757 5756 5756 5756 5756 5756 5757 5757 5757 5757 5756 5756 5756 5756 5757 5758 5760 5759 5757 5757 5757 5758 5758 5758
5768 5766 5763 5760 5759 5758 5758 5757 5756 5756 5755 5755 5755 5755 5754 5754 5754 5754 5754 5754 5754 5754 5754 5754 5754 5754 5753 5753 5753 5753 5753 5753 5753 5755 5758 5758 5757 5754 5754 5754 5754 5755 5755
5765 5762 5759 5756 5756 5755 5754 5754 5753 5753 5752 5752 5752 5751 5751 5751 5751 5751 5751 5751 5751 5751 5751 5751 5751 5751 5750 5750 5750 5749 5749 5750 5750 5753 5754 5753 5752 5751 5750 5751 5751 5751 5752
5762 5760 5756 5753 5752 5751 5751 5750 5750 5749 5749 5749 5748 5748 5748 5748 5747 5747 5747 5747 5747 5748 5748 5748 5747 5747 5747 5746 5746 5746 5746 5746 5749 5750 5750 5749 5749 5747 5747 5747 5748 5748 5748
5759 5757 5754 5750 5749 5748 5748 5747 5746 5746 5746 5745 5745 5744 5745 5745 5744 5744 5744 5744 5744 5744 5744 5744 5743 5743 5743 5742 5742 5742 5742 5743 5746 5746 5746 5745 5744 5743 5743 5743 5744 5744 5745
5756 5754 5752 5747 5746 5745 5744 5744 5743 5743 5742 5742 5742 5741 5741 5741 5740 5740 5740 5740 5740 5740 5740 5740 5740 5739 5739 5738 5738 5738 5738 5740 5742 5743 5742 5741 5739 5739 5739 5739 5740 5740 5741
5753 5752 5751 5749 5746 5743 5742 5741 5740 5739 5739 5738 5738 5738 5737 5737 5737 5736 5736 5736 5736 5736 5736 5736 5735 5735 5734 5734 5734 5734 5734 5736 5739 5739 5739 5737 5735 5735 5735 5735 5736 5736 5737
5751 5750 5749 5748 5746 5744 5742 5738 5737 5736 5735 5735 5734 5734 5734 5734 5734 5733 5733 5732 5732 5732 5732 5732 5731 5730 5730 5730 5730 5730 5731 5733 5734 5734 5734 5732 5730 5731 5731 5731 5732 5732 5732
5747 5748 5747 5746 5744 5742 5740 5737 5735 5733 5732 5732 5732 5731 5732 5734 5734 5732 5730 5728 5728 5728 5728 5727 5726 5726 5726 5725 5726 5727 5728 5731 5730 5729 5728 5726 5726 5726 5727 5727 5728 5728 5728
5744 5745 5746 5744 5742 5740 5738 5736 5735 5734 5732 5732 5731 5730 5731 5731 5729 5728 5724 5724 5723 5723 5723 5722 5722 5723 5724 5725 5724 5724 5726 5726 5725 5724 5722 5721 5722 5722 5722 5723 5723 5723 5724
5744 5743 5743 5742 5740 5738 5736 5734 5733 5731 5729 5729 5728 5727 5727 5727 5726 5725 5724 5722 5721 5721 5721 5719 5721 5722 5721 5720 5721 5721 5721 5721 5720 5719 5717 5716 5717 5718 5718 5718 5719 5719 5719
5742 5740 5740 5739 5738 5736 5734 5732 5731 5729 5728 5727 5725 5725 5725 5724 5723 5722 5721 5720 5719 5718 5717 5718 5717 5718 5718 5718 5717 5717 5717 5716 5714 5713 5711 5711 5712 5713 5713 5714 5714 5714 5714
5738 5738 5738 5737 5736 5734 5731 5728 5728 5726 5726 5725 5721 5722 5722 5721 5721 5719 5718 5716 5716 5715 5714 5713 5714 5713 5713 5713 5712 5712 5712 5711 5710 5709 5707 5706 5707 5707 5708 5709 5709 5709 5709
5738 5737 5736 5735 5733 5731 5729 5727 5726 5724 5721 5721 5719 5719 5719 5718 5717 5715 5714 5713 5712 5711 5710 5710 5710 5708 5708 5708 5707 5706 5706 5706 5705 5705 5704 5702 5701 5701 5702 5703 5704 5704 5704
5738 5737 5734 5733 5731 5729 5727 5724 5723 5721 5720 5718 5717 5716 5715 5714 5713 5712 5712 5711 5709 5707 5707 5706 5706 5705 5704 5703 5702 5701 5700 5700 5700 5700 5700 5699 5698 5696 5696 5696 5697 5698 5698
5738 5736 5733 5731 5728 5726 5724 5722 5721 5719 5717 5715 5714 5713 5712 5712 5711 5709 5708 5707 5705 5704 5703 5702 5702 5701 5700 5699 5698 5697 5696 5694 5695 5695 5695 5694 5693 5693 5691 5689 5690 5691 5692
5737 5735 5732 5730 5726 5724 5721 5719 5717 5716 5714 5712 5711 5710 5709 5709 5708 5706 5705 5704 5702 5701 5700 5699 5698 5697 5695 5693 5693 5691 5691 5690 5690 5690 5690 5689 5688 5688 5687 5685 5685 5685 5686
5734 5733 5731 5728 5725 5722 5719 5717 5714 5712 5711 5710 5708 5707 5706 5705 5704 5703 5702 5701 5700 5698 5696 5695 5693 5693 5691 5690 5690 5687 5686 5686 5685 5685 5685 5684 5684 5683 5682 5682 5682 5681 5680
5731 5730 5729 5726 5723 5720 5716 5713 5711 5708 5708 5707 5706 5704 5703 5703 5702 5701 5700 5698 5696 5695 5694 5693 5690 5688 5687 5687 5685 5682 5682 5682 5681 5680 5680 5680 5679 5678 5678 5678 5678 5678 5677
5728 5728 5727 5724 5722 5719 5715 5714 5711 5708 5706 5705 5703 5702 5701 5701 5700 5699 5698 5696 5694 5692 5691 5689 5687 5686 5684 5685 5684 5681 5678 5676 5676 5677 5676 5676 5676 5675 5675 5675 5674 5674 5674
5726 5725 5724 5723 5721 5718 5715 5712 5709 5706 5704 5702 5701 5700 5699 5699 5698 5697 5695 5694 5692 5691 5689 5687 5686 5683 5681 5682 5684 5682 5678 5674 5672 5672 5673 5673 5672 5672 5672 5671 5671 5670 5670
5724 5724 5723 5721 5719 5717 5714 5710 5707 5703 5701 5701 5700 5699 5698 5697 5695 5694 5693 5692 5691 5690 5688 5687 5686 5684 5682 5680 5680 5681 5682 5680 5674 5669 5670 5671 5670 5669 5669 5668 5667 5666 5666
5722 5720 5719 5718 5716 5714 5712 5708 5706 5704 5703 5702 5700 5698 5697 5695 5693 5692 5691 5690 5689 5688 5687 5686 5685 5684 5682 5681 5680 5679 5678 5676 5678 5674 5667 5666 5667 5667 5666 5665 5664 5662 5661
5718 5716 5714 5714 5712 5711 5709 5708 5706 5703 5702 5700 5698 5696 5695 5693 5692 5690 5689 5689 5688 5687 5686 5685 5684 5682 5682 5681 5680 5680 5678 5676 5675 5674 5670 5666 5664 5663 5663 5661 5661 5659 5658